STARLINK-32396, 61633

Orbit data source: Space-Track

STARLINK-32396, 61633 is a payload satellite owned by SpaceX/Seattle (US) in LEO that was launched on Wed, 23 Oct 2024 UTC via an FALCON 9 launch vehicle from the Air Force Eastern Test Range (AFETR). Payload-class satellites include a variety of spacecraft equipped with specific instruments for various scientific and technological missions. These include communications satellites like Starlink; space stations such as the ISS; scientific satellites like the Hubble; Earth observation satellites from companies like Planet Labs, Umbra, and HawkEye 360; GPS; miniature CubeSats for education and research; and military/defense satellites.

Loading next visibility...
Identifier
61633, 2024-191N
Orbit
LEO
Country
Flag of USUS
Related business
Manufacturer
SpaceX/Seattle
Mission
Operational Commercial Communications
Bus & Motor
STARLINK V2M, Unknown motor
Mass
730 kg wet, ~700 kg dry
Launch date (UTC)
2024-10-23 (2 years ago)
Launch vehicle
FALCON 9
Launch site
Air Force Eastern Test Range (AFETR)
Object type
Payload
Rocket body
Debris
Shape & HBR
Box + 2 Pan, 17.7 m
Radar Cross Section
33.884 m², Large (>1 m²)

Expand to show TLE details & history
Last TLE update: 14 hours ago

TLE from 14 hours ago
0 STARLINK-32396
1 61633U 24191N   26255.16436592  .00000086  00000-0  12656-4 0  9990
2 61633  43.0038 184.9965 0000799 260.2834  99.7928 15.27576567106014
Epoch: 2026-09-12T03:56Z
TLE epoch observation values (Epoch: 2026-09-12T03:56:41.215Z)
Latitude
0.00002°
Longitude
134.64749°
Altitude
482.928 km
Speed
7.626 km/s
True Right ascension
12h 19m 59s
True Declination
0° 00' 00"
Sunlit
Object was in daylight at epoch
Visualization orbit readout
Latitude
Unknown
Longitude
Unknown
Altitude
Unknown
Speed
Unknown
Apparent Right ascension
Unknown
Apparent Declination
Unknown
Sunlit
N/A
Visualization observer readout
Local Sidereal Time
10:00:17
Azimuth
Unknown
Elevation
Unknown
Doppler factor
Unknown
Orbital elements
Apogee altitude
485.552 km
Perigee altitude
484.456 km
Semi-major axis
6,863.141 km
Eccentricity
0.00008
Inclination
43.0038°
RAAN
184.9965°
Arg. of periapsis
260.2834°
True anomaly
99.80182°
Mean anomaly
99.7928°
Eccentric anomaly
99.79731°
Mean motion
3.81732 °/min
Orbital period
94.31 mins
BSTAR
0.000012656
Loading maneuver chart data...
Computing Atmospheric mass density...
Loading historical data...
Loading historical data...
Loading historical data...
Loading historical data...
Loading historical data...
Loading historical data...
Loading historical data...

Documentation

Showing up to 5 results
|